Tel Aviv, Israel

3:07 AM IDT on March 30, 2017 (GMT +0300)
Ben Gurion

Weather History for LLBG - November, 2012

Change the Weather History Date:

Thursday, November 15, 2012

  Actual Average Record
Temperature  
Mean Temperature 68 °F -  
Max Temperature 79 °F 70 °F 90 °F (2015)
Min Temperature 58 °F 53 °F 53 °F (1997)
Cooling Degree Days 4    
Growing Degree Days 18 (Base 50)    
Moisture  
Dew Point 54 °F    
Average Humidity 62    
Maximum Humidity 88    
Minimum Humidity 30    
Precipitation  
Precipitation 0.00 in - - ()
Sea Level Pressure  
Sea Level Pressure 30.05 in    
Wind  
Wind Speed 3 mph ()    
Max Wind Speed 8 mph    
Max Gust Speed -    
Visibility 6.1 miles    
Events      
Averages and records for this station are not official NWS values.
T = Trace of Precipitation, MM = Missing Value Source: Averaged Metar Reports

Daily Weather History Graph

Daily Weather History Graph

Search for Another Location

Airport or City:

Trip Planner

Search our weather history database for the weather conditions in past years. The results will help you decide how hot, cold, wet, or windy it might be!

Date:

Astronomy

Nov. 15, 2012 Rise Set
Actual Time 6:09 AM IST 4:40 PM IST
Civil Twilight 5:43 AM IST 5:06 PM IST
Nautical Twilight 5:13 AM IST 5:35 PM IST
Astronomical Twilight 4:44 AM IST 6:04 PM IST
Moon 7:38 AM IST (11/15) 6:13 PM IST (11/15)
Length of Visible Light 11h 23m
Length of Day
10h 31m
Waxing Crescent, 3% of the Moon is Illuminated
Nov 15
Waxing Crescent
Nov 20
First Quarter
Nov 28
Full
Dec 6
Last Quarter
Dec 13
New

Hourly Weather History & Observations

Time (IST) Temp. Dew Point Humidity Pressure Visibility Wind Dir Wind Speed Gust Speed Precip Events Conditions
12:50 AM 62.6 °F 57.2 °F 82% 30.06 in 6.2 mi East 1.2 mph - N/A   Partly Cloudy
1:50 AM 62.6 °F 57.2 °F 82% 30.06 in - Variable 1.2 mph - N/A   Clear
2:00 AM 63 °F 57 °F 76% 30.08 in 6 mi 1.2 mph - -  
2:50 AM 62.6 °F 57.2 °F 82% 30.06 in - Variable 2.3 mph - N/A   Clear
3:50 AM 60.8 °F 57.2 °F 88% 30.06 in - Variable 1.2 mph - N/A   Clear
4:50 AM 60.8 °F 57.2 °F 88% 30.06 in - Variable 1.2 mph - N/A   Clear
5:50 AM 59.0 °F 55.4 °F 88% 30.06 in - Variable 1.2 mph - N/A   Clear
6:50 AM 60.8 °F 55.4 °F 82% 30.06 in - NNE 2.3 mph - N/A   Clear
7:50 AM 64.4 °F 53.6 °F 68% 30.09 in - Calm Calm - N/A   Clear
8:00 AM 65 °F 54 °F 59% 30.10 in 6 mi Calm Calm - -  
8:50 AM 69.8 °F 53.6 °F 56% 30.09 in - East 2.3 mph - N/A   Clear
9:50 AM 73.4 °F 53.6 °F 50% 30.09 in - Variable 1.2 mph - N/A   Clear
10:50 AM 75.2 °F 51.8 °F 44% 30.06 in - West 2.3 mph - N/A   Clear
11:50 AM 77.0 °F 51.8 °F 41% 30.06 in 6.2 mi WNW 3.5 mph - N/A   Partly Cloudy
12:50 PM 77.0 °F 51.8 °F 41% 30.04 in - WNW 8.1 mph - N/A   Clear
1:50 PM 77.0 °F 51.8 °F 41% 30.01 in - North 8.1 mph - N/A   Clear
2:00 PM 77 °F 51 °F 30% 30.02 in 6 mi North 8.1 mph - -  
2:50 PM 77.0 °F 51.8 °F 41% 30.01 in - East 8.1 mph - N/A   Clear
3:50 PM 75.2 °F 53.6 °F 47% 30.01 in - NNW 4.6 mph - N/A   Clear
4:50 PM 73.4 °F 55.4 °F 53% 30.01 in - NW 6.9 mph - N/A   Clear
5:50 PM 71.6 °F 59.0 °F 64% 30.04 in - North 6.9 mph - N/A   Clear
6:50 PM 69.8 °F 59.0 °F 68% 30.04 in - NNE 4.6 mph - N/A   Clear
7:50 PM 68.0 °F 57.2 °F 68% 30.04 in - ENE 3.5 mph - N/A   Clear
8:00 PM 67 °F 58 °F 64% 30.05 in 6 mi ENE 3.5 mph - -  
8:50 PM 66.2 °F 51.8 °F 60% 30.04 in - NE 4.6 mph - N/A   Clear
10:50 PM 68.0 °F 48.2 °F 49% 30.06 in - NE 4.6 mph - N/A   Clear
11:50 PM 64.4 °F 48.2 °F 56% 30.04 in - ENE 8.1 mph - N/A   Clear